SR9WXJ Weather Reports


time (UTC)temp
F
wind
direction
speed
knots
gust
knots
rain 1hr
in
rain 24hr
in
rain mn
in
humidity
%
barometer
mb
20260905194932 63 266 5.2 7.8 0.00 0.00 0.00 100 799.7
20260905193721 63 234 3.5 5.2 0.00 0.00 0.00 100 799.7
20260905192508 63 270 2.6 5.2 0.00 0.00 0.00 100 799.7
20260905191306 63 262 6.1 9.6 0.00 0.00 0.00 100 799.7
20260905184846 63 251 3.5 7.8 0.00 0.00 0.00 100 799.7
20260905183636 64 258 3.5 3.5 0.00 0.00 0.00 100 799.7
20260905182423 64 244 5.2 10.4 0.00 0.00 0.00 100 799.7
20260905181214 64 246 2.6 3.5 0.00 0.00 0.00 100 799.7
20260905180004 65 186 3.5 4.3 0.00 0.00 0.00 100 799.7
20260905174754 64 217 1.7 3.5 0.00 0.00 0.00 100 799.7
20260905173541 65 276 2.6 4.3 0.00 0.00 0.00 100 799.7
20260905172331 65 293 2.6 4.3 0.00 0.00 0.00 100 799.7
20260905171120 66 296 5.2 8.7 0.00 0.00 0.00 100 799.7
20260905164657 66 214 2.6 5.2 0.00 0.00 0.00 100 799.7
20260905162944 68 236 2.6 2.6 0.00 0.00 0.00 100 799.7
20260905162433 69 207 3.5 5.2 0.00 0.00 0.00 100 799.7
20260905161919 68 130 1.7 2.6 0.00 0.00 0.00 100 799.7
20260905160357 68 246 3.5 5.2 0.00 0.00 0.00 100 799.7
20260905155846 68 215 2.6 3.5 0.00 0.00 0.00 100 799.7
20260905155335 68 244 3.5 5.2 0.00 0.00 0.00 100 799.7
20260905154824 69 229 3.5 3.5 0.00 0.00 0.00 100 799.7
20260905154324 70 170 2.6 6.1 0.00 0.00 0.00 100 799.7
20260905153814 71 215 3.5 5.2 0.00 0.00 0.00 100 799.7
20260905152753 71 157 2.6 4.3 0.00 0.00 0.00 100 799.7
20260905151731 71 188 1.7 1.7 0.00 0.00 0.00 100 799.7
20260905151231 71 230 3.5 6.1 0.00 0.00 0.00 100 799.7
20260905150720 71 220 4.3 7.8 0.00 0.00 0.00 100 799.7
20260905150210 71 206 2.6 6.1 0.00 0.00 0.00 100 799.7
20260905145659 68 195 1.7 3.5 0.00 0.00 0.00 100 799.7
20260905145148 72 201 1.7 3.5 0.00 0.00 0.00 100 799.7
20260905144138 71 165 2.6 3.5 0.00 0.00 0.00 100 799.7
20260905143627 71 198 3.5 6.1 0.00 0.00 0.00 100 799.7
20260905143117 71 182 2.6 5.2 0.00 0.00 0.00 100 799.7
20260905142606 69 156 4.3 4.3 0.00 0.00 0.00 100 799.7
20260905142056 69 184 3.5 7.0 0.00 0.00 0.00 100 799.7
20260905141556 69 199 3.5 5.2 0.00 0.00 0.00 100 799.7
20260905141044 69 249 3.5 6.1 0.00 0.00 0.00 100 799.7
20260905140534 68 251 3.5 7.0 0.00 0.00 0.00 100 799.7
20260905140022 68 290 7.0 9.6 0.00 0.00 0.00 100 799.7
20260905135512 68 289 6.1 9.6 0.00 0.00 0.00 100 799.7
20260905135000 66 281 5.2 9.6 0.00 0.00 0.00 100 799.7
20260905134500 67 242 1.7 2.6 0.00 0.00 0.00 100 799.7
20260905133947 68 221 2.6 6.1 0.00 0.00 0.00 100 799.7
20260905133436 67 273 3.5 4.3 0.00 0.00 0.00 100 799.7
20260905132925 66 283 2.6 5.2 0.00 0.00 0.00 100 799.7
20260905131914 66 176 1.7 1.7 0.00 0.00 0.00 100 799.7
20260905130341 67 288 6.1 9.6 0.00 0.00 0.00 100 799.7
20260905125841 67 220 4.3 7.0 0.00 0.00 0.00 100 799.7
20260905125331 66 194 3.5 7.0 0.00 0.00 0.00 100 799.7
20260905124820 66 272 5.2 7.8 0.00 0.00 0.00 100 799.7
20260905124309 67 214 3.5 7.0 0.00 0.00 0.00 100 799.7
20260905123758 67 215 3.5 5.2 0.00 0.00 0.00 100 799.7
20260905123247 66 290 7.0 10.4 0.00 0.00 0.00 100 799.7
20260905122747 67 214 3.5 5.2 0.00 0.00 0.00 100 799.7
20260905122236 66 252 4.3 7.8 0.00 0.00 0.00 100 799.7
20260905121725 65 275 5.2 8.7 0.00 0.00 0.00 100 799.7
20260905120703 65 259 3.5 5.2 0.00 0.00 0.00 100 799.7
20260905115652 65 281 7.0 10.4 0.00 0.00 0.00 100 799.7
20260905115141 65 311 7.0 11.3 0.00 0.00 0.00 100 799.7
20260905114630 65 262 3.5 5.2 0.00 0.00 0.00 100 799.7
20260905114119 66 277 7.8 12.2 0.00 0.00 0.00 100 799.7
20260905113608 65 279 1.7 3.5 0.00 0.00 0.00 100 799.7
20260905113423 65 257 6.1 8.7 0.00 0.00 0.00 100 799.7
20260905113108 65 257 6.1 8.7 0.00 0.00 0.00 100 799.7
20260905112557 65 280 2.6 4.3 0.00 0.00 0.00 100 799.7
20260905112046 65 302 8.7 10.4 0.00 0.00 0.00 100 799.7
20260905111534 65 294 7.0 7.8 0.00 0.00 0.00 100 799.7
20260905111024 64 226 3.5 7.0 0.00 0.00 0.00 100 799.7
20260905110523 63 313 7.0 11.3 0.00 0.00 0.00 100 799.7
20260905110009 63 288 7.0 8.7 0.00 0.00 0.00 100 799.7
20260905105458 63 280 7.0 11.3 0.00 0.00 0.00 100 799.7
20260905104947 64 267 5.2 12.2 0.00 0.00 0.00 100 799.7
20260905104447 63 254 7.0 10.4 0.00 0.00 0.00 100 799.7
20260905103936 63 273 9.6 13.9 0.00 0.00 0.00 100 799.7
20260905103425 63 263 5.2 9.6 0.00 0.00 0.00 100 799.7
20260905102914 63 301 4.3 7.8 0.00 0.00 0.00 100 799.7
20260905102552 64 265 4.3 5.2 0.00 0.00 0.00 100 799.7
20260905102403 64 265 4.3 5.2 0.00 0.00 0.00 100 799.7
20260905101852 63 248 2.6 3.5 0.00 0.00 0.00 100 799.7
20260905101352 63 167 3.5 8.7 0.00 0.00 0.00 100 799.7
20260905100841 63 253 1.7 1.7 0.00 0.00 0.00 100 799.7
20260905100330 63 180 2.6 4.3 0.00 0.00 0.00 100 799.7
20260905095820 63 250 1.7 2.6 0.00 0.00 0.00 100 799.7
20260905095309 62 230 7.0 13.0 0.00 0.00 0.00 100 800.3
20260905094809 62 236 5.2 8.7 0.00 0.00 0.00 100 800.3
20260905094258 62 107 1.7 2.6 0.00 0.00 0.00 100 800.3
20260905093747 62 222 2.6 4.3 0.00 0.00 0.00 100 801.1
20260905093237 62 188 2.6 2.6 0.00 0.00 0.00 100 801.1
20260905092726 62 150 2.6 3.5 0.00 0.00 0.00 100 801.1
20260905091715 62 144 3.5 4.3 0.00 0.00 0.00 100 801.7
20260905091205 61 159 3.5 7.8 0.00 0.00 0.00 100 802.2
20260905090654 60 112 2.6 3.5 0.00 0.00 0.00 100 802.2
20260905090144 60 168 3.5 7.0 0.00 0.00 0.00 100 802.2
20260905085633 60 157 2.6 5.2 0.00 0.00 0.00 100 802.4
20260905085133 60 137 1.7 2.6 0.00 0.00 0.00 100 802.4
20260905084622 60 148 2.6 2.6 0.00 0.00 0.00 100 802.4
20260905084112 60 150 0.0 0.0 0.00 0.00 0.00 100
20260905083601 59 134 0.0 0.0 0.00 0.00 0.00 100
20260905083055 59 147 2.6 2.6 0.00 0.00 0.00 100 802.9
20260905082544 59 160 2.6 3.5 0.00 0.00 0.00 100 802.9
20260905082033 58 133 1.7 1.7 0.00 0.00 0.00 100 802.9
20260905081522 58 158 1.7 1.7 0.00 0.00 0.00 100 802.9
20260905081024 58 189 2.6 3.5 0.00 0.00 0.00 100 802.9
20260905080510 58 148 1.7 1.7 0.00 0.00 0.00 100 802.9
20260905075449 57 164 3.5 3.5 0.00 0.00 0.00 100 802.9
20260905074948 57 144 3.5 3.5 0.00 0.00 0.00 100 802.9
20260905074437 57 141 3.5 3.5 0.00 0.00 0.00 100 802.9
20260905073926 58 182 3.5 3.5 0.00 0.00 0.00 100 802.9
20260905073415 59 131 2.6 3.5 0.00 0.00 0.00 100 802.9
20260905072904 58 124 1.7 1.7 0.00 0.00 0.00 100 802.9
20260905072404 58 201 2.6 6.1 0.00 0.00 0.00 100 802.9
20260905071852 58 245 5.2 7.0 0.00 0.00 0.00 100 802.9
20260905071343 58 250 6.1 10.4 0.00 0.00 0.00 100 802.9
20260905070828 58 225 2.6 3.5 0.00 0.00 0.00 100 802.9
20260905070328 58 268 2.6 5.2 0.00 0.00 0.00 100 802.9
20260905065817 58 199 2.6 5.2 0.00 0.00 0.00 100 802.9
20260905065307 58 150 3.5 3.5 0.00 0.00 0.00 100 802.9
20260905064755 58 138 1.7 2.6 0.00 0.00 0.00 100 802.9
20260905064244 57 134 1.7 2.6 0.00 0.00 0.00 100 802.9
20260905063744 57 109 1.7 1.7 0.00 0.00 0.00 100 802.9
20260905063233 57 129 1.7 1.7 0.00 0.00 0.00 100 802.9
20260905062722 57 115 1.7 1.7 0.00 0.00 0.00 100 802.9
20260905062211 57 118 2.6 2.6 0.00 0.00 0.00 100 802.9
20260905061714 57 138 2.6 2.6 0.00 0.00 0.00 100 802.9
20260905061156 57 129 1.7 2.6 0.00 0.00 0.00 100 802.9
20260905060145 58 121 1.7 1.7 0.00 0.00 0.00 100 802.5
20260905055634 58 125 1.7 3.5 0.00 0.00 0.00 100 802.2
20260905055123 59 206 1.7 3.5 0.00 0.00 0.00 100 802.2
20260905054611 60 322 2.6 2.6 0.00 0.00 0.00 100 798.3
20260905054100 60 160 1.7 1.7 0.00 0.00 0.00 100 798.3
20260905053600 60 202 3.5 6.1 0.00 0.00 0.00 100 794.5
20260905052538 59 125 2.6 2.6 0.00 0.00 0.00 100 794.5
20260905051526 59 175 1.7 1.7 0.00 0.00 0.00 100 794.5
20260905051015 60 115 1.7 1.7 0.00 0.00 0.00 100 794.5
20260905050504 61 135 1.7 1.7 0.00 0.00 0.00 100 794.5
20260905045953 61 157 1.7 1.7 0.00 0.00 0.00 100 794.5
20260905045442 61 179 1.7 1.7 0.00 0.00 0.00 100 794.5
20260905044942 61 192 2.6 3.5 0.00 0.00 0.00 100 794.5
20260905044431 61 248 2.6 2.6 0.00 0.00 0.00 100 794.5
20260905043920 61 27 2.6 2.6 0.00 0.00 0.00 100 794.5
20260905043409 61 199 2.6 3.5 0.00 0.00 0.00 100 794.5
20260905042908 61 280 3.5 4.3 0.00 0.00 0.00 100 794.5
20260905042359 60 254 3.5 6.1 0.00 0.00 0.00 100 794.5
20260905040823 60 135 1.7 2.6 0.00 0.00 0.00 100 794.5
20260905040322 61 129 1.7 1.7 0.00 0.00 0.00 100 794.5
20260905035812 61 122 1.7 1.7 0.00 0.00 0.00 100 794.5
20260905035301 62 115 1.7 1.7 0.00 0.00 0.00 100 794.5
20260905034750 62 90 1.7 1.7 0.00 0.00 0.00 100 794.5
20260905033739 62 108 1.7 1.7 0.00 0.00 0.00 100 794.5
20260905033225 62 297 1.7 2.6 0.00 0.00 0.00 100 794.5
20260905032212 62 190 1.7 1.7 0.00 0.00 0.00 100 791.0
20260905031701 62 298 1.7 2.6 0.00 0.00 0.00 100 791.0
20260905031149 62 18 2.6 3.5 0.00 0.00 0.00 100 791.0
20260905030639 62 235 1.7 1.7 0.00 0.00 0.00 100 791.0
20260905030138 62 235 1.7 1.7 0.00 0.00 0.00 100 791.0
20260905025627 62 191 1.7 1.7 0.00 0.00 0.00 100 791.0
20260905025116 62 193 1.7 2.6 0.00 0.00 0.00 100 791.0
20260905024606 62 177 2.6 2.6 0.00 0.00 0.00 100 791.0
20260905024105 62 80 2.6 2.6 0.00 0.00 0.00 100 791.0
20260905023554 61 110 1.7 1.7 0.00 0.00 0.00 100 791.0
20260905023046 61 104 1.7 1.7 0.00 0.00 0.00 100 791.0
20260905022532 61 97 1.7 1.7 0.00 0.00 0.00 100 791.0
20260905022021 61 97 1.7 1.7 0.00 0.00 0.00 100 791.0
20260905021521 60 101 1.7 2.6 0.00 0.00 0.00 100 791.0
20260905021010 60 108 1.7 1.7 0.00 0.00 0.00 100 791.0
20260905020459 60 91 1.7 1.7 0.00 0.00 0.00 100 791.0
20260905015948 60 57 2.6 2.6 0.00 0.00 0.00 100 791.0
20260905015448 60 66 1.7 1.7 0.00 0.00 0.00 100 791.0
20260905014937 61 69 1.7 1.7 0.00 0.00 0.00 100 791.0
20260905014427 61 52 1.7 1.7 0.00 0.00 0.00 100 787.4
20260905013915 61 24 2.6 3.5 0.00 0.00 0.00 100 787.4
20260905013406 61 51 1.7 3.5 0.00 0.00 0.00 100 787.4
20260905012902 61 12 2.6 3.5 0.00 0.00 0.00 100 787.4
20260905012352 62 287 6.1 8.7 0.00 0.00 0.00 100 787.4
20260905011839 63 296 6.1 8.7 0.00 0.00 0.00 100 787.4
20260905011329 63 299 7.0 10.4 0.00 0.00 0.00 100 787.4
20260905010828 63 343 5.2 6.1 0.00 0.00 0.00 100 787.4
20260905010317 63 317 5.2 7.8 0.00 0.00 0.00 100 787.4
20260905005805 63 302 5.2 7.8 0.00 0.00 0.00 100 787.4
20260905005251 63 308 7.0 9.6 0.00 0.00 0.00 100 787.4
20260905004751 64 316 7.8 11.3 0.00 0.00 0.00 100 787.4
20260905004240 64 315 7.0 10.4 0.00 0.00 0.00 100 787.4
20260905002923 65 293 7.0 8.7 0.00 0.00 0.00 100 787.4
20260905001712 66 301 6.1 7.8 0.00 0.00 0.00 100 787.4
20260905000502 66 310 6.1 9.6 0.00 0.00 0.00 100 787.4
20260904235251 66 300 7.8 9.6 0.00 0.00 0.00 100 787.4
20260904234038 67 283 7.0 10.4 0.00 0.00 0.00 100 787.4
20260904232836 68 300 10.4 12.2 0.00 0.00 0.00 100 787.4
20260904231626 69 300 9.6 13.0 0.00 0.00 0.00 100 787.4
20260904230415 71 293 13.9 19.1 0.00 0.00 0.00 100 787.4
20260904225204 73 192 2.6 2.6 0.00 0.00 0.00 100 787.4
20260904223952 74 155 1.7 3.5 0.00 0.00 0.00 100 787.4
20260904222742 74 130 1.7 1.7 0.00 0.00 0.00 100 787.4
20260904221532 74 157 1.7 1.7 0.00 0.00 0.00 100 787.4
20260904220322 74 152 2.6 3.5 0.00 0.00 0.00 100 787.4
20260904215109 74 150 1.7 1.7 0.00 0.00 0.00 100 787.4
20260904213907 74 138 1.7 2.6 0.00 0.00 0.00 100 787.4
20260904212656 74 143 1.7 2.6 0.00 0.00 0.00 100 787.4
20260904211446 74 146 1.7 1.7 0.00 0.00 0.00 100 787.4
20260904210233 74 144 4.3 4.3 0.00 0.00 0.00 100 787.4
20260904205023 74 139 2.6 3.5 0.00 0.00 0.00 100 787.4
20260904203813 74 151 1.7 3.5 0.00 0.00 0.00 100 787.4
20260904202602 73 161 3.5 7.8 0.00 0.00 0.00 100 787.4
20260904201349 74 156 1.7 4.3 0.00 0.00 0.00 100 787.4
20260904200139 74 153 2.6 5.2 0.00 0.00 0.00 100 787.4